Location: Glencliff
(36.1226°N, 86.7183°W)
Time: 15:11:05
(UTC+00:00)

CRYOSAT 2 - Pass Details

Date: 25 August 2019
Orbit: 712 x 725 km, 92.0° (Epoch: 23 September)

Event Time Altitude Azimuth Distance (km) Brightness Sun altitude
Rises 09:52:38 0° 179° (S) 3,122 7.4 -16.0°
Reaches altitude 10° 09:54:55 10° 181° (S) 2,204 6.6 -15.6°
Maximum altitude 09:59:47 72° 266° (W) 761 4.3 -14.7°
Drops below altitude 10° 10:04:40 10° 351° (N) 2,212 7.1 -13.8°
Sets 10:06:58 0° 353° (N) 3,134 7.9 -13.4°
